GSAT0210 (PRN E01)

Last updated on Oct. 24, 2020, 5:55 a.m. UTC

1 41550U 16030B   20297.07215152 -.00000009  00000-0  00000+0 0  9997
2 41550  56.1980 278.4529 0004859 277.0866  82.8430  1.70474543 27475
UTC
Height (km)
Latitude
Longitude
Inclination
Orbital Period
UTC large
Height (km)
Speed (km/s)
/
Latitude / Longitude
Inclination (degrees)
Orbital Period (minutes)
Azimuth
Elevation
Range (km)
Doppler Factor
iOS Compass Heading
iOS Angle

Next 30 passes for location: Hong Kong

Rise time Rise Azimuth (degrees) Set time Set Azimuth (degrees) Duration Max altitude (degrees)

No matching passes for this satellites